• In France
  • List of Countries
  • For 7 days
  • Water Temperature
  • Satellite Maps
  • Weather Map
  • Weather Widgets
  • user-avatar
    Login

    Hourly Weather Gizewo

    Today, 20 June, Wednesday

    Time Temperature Precipitation Wind Pressure Humidity
    00:00 +14°C° 0 mm 2 mps 748 mmHg 92%
    01:00 +13°C° 0 mm 3 mps 747 mmHg 92%
    02:00 +13°C° 0 mm 3 mps 748 mmHg 92%
    03:00 +12°C° 0 mm 3 mps 748 mmHg 93%
    04:00 +12°C° 0 mm 3 mps 748 mmHg 93%
    05:00 +13°C° 0 mm 4 mps 748 mmHg 85%
    06:00 +15°C° 0 mm 4 mps 748 mmHg 77%
    07:00 +18°C° 0 mm 4 mps 748 mmHg 69%
    08:00 +19°C° 0 mm 4 mps 749 mmHg 65%
    09:00 +20°C° 0 mm 5 mps 749 mmHg 60%
    10:00 +21°C° 0 mm 5 mps 749 mmHg 56%
    11:00 +21°C° 0 mm 4 mps 749 mmHg 55%
    12:00 +22°C° 0 mm 4 mps 749 mmHg 53%
    13:00 +23°C° 0 mm 4 mps 748 mmHg 52%
    14:00 +23°C° 0 mm 4 mps 748 mmHg 52%
    15:00 +23°C° 0 mm 4 mps 748 mmHg 53%
    16:00 +24°C° 0 mm 3 mps 748 mmHg 54%
    17:00 +23°C° 0 mm 2 mps 748 mmHg 60%
    18:00 +21°C° 0 mm 2 mps 747 mmHg 65%
    19:00 +21°C° 0 mm 1 mps 747 mmHg 71%
    20:00 +20°C° 0 mm 1 mps 747 mmHg 73%
    21:00 +18°C° 0 mm 2 mps 746 mmHg 75%
    22:00 +17°C° 0 mm 3 mps 746 mmHg 77%
    23:00 +16°C° 0 mm 3 mps 746 mmHg 79%

    Tomorrow, 21 June, Thursday

    Time Temperature Precipitation Wind Pressure Humidity
    00:00 +16°C° 0 mm 3 mps 746 mmHg 82%
    01:00 +16°C° 0 mm 3 mps 745 mmHg 84%
    02:00 +17°C° 0 mm 3 mps 745 mmHg 84%
    03:00 +17°C° 0 mm 3 mps 744 mmHg 83%
    04:00 +18°C° 0 mm 3 mps 744 mmHg 83%
    05:00 +19°C° 0.1 mm 4 mps 744 mmHg 80%
    06:00 +21°C° 0.1 mm 4 mps 743 mmHg 77%
    07:00 +22°C° 0.1 mm 5 mps 743 mmHg 73%
    08:00 +23°C° 0.2 mm 5 mps 743 mmHg 70%
    09:00 +24°C° 0.2 mm 6 mps 742 mmHg 67%
    10:00 +26°C° 0.2 mm 6 mps 741 mmHg 64%
    11:00 +26°C° 0.4 mm 6 mps 741 mmHg 63%
    12:00 +27°C° 0.4 mm 6 mps 740 mmHg 62%
    13:00 +27°C° 0.4 mm 6 mps 739 mmHg 61%
    14:00 +27°C° 0.6 mm 6 mps 738 mmHg 67%
    15:00 +26°C° 0.6 mm 5 mps 737 mmHg 72%
    16:00 +25°C° 0.6 mm 5 mps 737 mmHg 78%
    17:00 +23°C° 1.1 mm 5 mps 736 mmHg 81%
    18:00 +21°C° 1.1 mm 5 mps 736 mmHg 84%
    19:00 +20°C° 1.1 mm 5 mps 736 mmHg 87%
    20:00 +17°C° 0.2 mm 5 mps 736 mmHg 89%
    21:00 +14°C° 0.2 mm 4 mps 736 mmHg 90%
    22:00 +12°C° 0.2 mm 3 mps 736 mmHg 92%
    23:00 +12°C° 0.2 mm 4 mps 736 mmHg 92%

    Day after tomorrow, 22 June, Friday

    Time Temperature Precipitation Wind Pressure Humidity
    00:00 +10°C° 0.2 mm 5 mps 737 mmHg 91%
    01:00 +10°C° 0.2 mm 5 mps 737 mmHg 91%
    02:00 +9°C° 0 mm 6 mps 737 mmHg 90%
    03:00 +8°C° 0 mm 6 mps 738 mmHg 88%
    04:00 +8°C° 0 mm 6 mps 738 mmHg 87%
    05:00 +9°C° 0 mm 6 mps 738 mmHg 81%
    06:00 +10°C° 0 mm 7 mps 738 mmHg 75%
    07:00 +11°C° 0 mm 7 mps 739 mmHg 69%
    08:00 +11°C° 0 mm 8 mps 739 mmHg 66%
    09:00 +12°C° 0 mm 8 mps 739 mmHg 63%
    10:00 +13°C° 0 mm 8 mps 739 mmHg 60%
    11:00 +13°C° 0.1 mm 8 mps 739 mmHg 61%
    12:00 +13°C° 0.1 mm 8 mps 739 mmHg 63%
    13:00 +13°C° 0.1 mm 8 mps 739 mmHg 64%
    14:00 +13°C° 0.3 mm 8 mps 739 mmHg 67%
    15:00 +14°C° 0.3 mm 7 mps 739 mmHg 71%
    16:00 +14°C° 0.3 mm 7 mps 740 mmHg 74%
    17:00 +14°C° 0.2 mm 6 mps 740 mmHg 77%
    18:00 +13°C° 0.2 mm 4 mps 740 mmHg 81%
    19:00 +12°C° 0.2 mm 3 mps 741 mmHg 84%
    20:00 +11°C° 0 mm 3 mps 741 mmHg 85%
    21:00 +10°C° 0 mm 3 mps 741 mmHg 87%
    22:00 +9°C° 0 mm 3 mps 741 mmHg 88%
    23:00 +8°C° 0 mm 4 mps 741 mmHg 87%

    23 June, Saturday

    Time Temperature Precipitation Wind Pressure Humidity
    00:00 +8°C° 0 mm 4 mps 741 mmHg 86%
    01:00 +7°C° 0 mm 4 mps 741 mmHg 85%
    02:00 +7°C° 0 mm 4 mps 741 mmHg 87%
    03:00 +7°C° 0 mm 4 mps 741 mmHg 88%
    04:00 +8°C° 0 mm 4 mps 741 mmHg 90%
    05:00 +10°C° 0.1 mm 4 mps 741 mmHg 89%
    06:00 +10°C° 0.1 mm 4 mps 741 mmHg 88%
    07:00 +11°C° 0.1 mm 4 mps 741 mmHg 87%
    08:00 +12°C° 0.5 mm 5 mps 741 mmHg 86%
    09:00 +12°C° 0.5 mm 5 mps 741 mmHg 86%
    10:00 +13°C° 0.5 mm 5 mps 741 mmHg 85%
    11:00 +13°C° 0.9 mm 5 mps 741 mmHg 86%
    12:00 +13°C° 0.9 mm 4 mps 741 mmHg 87%
    13:00 +13°C° 0.9 mm 4 mps 741 mmHg 88%
    14:00 +13°C° 0.7 mm 5 mps 741 mmHg 86%
    15:00 +14°C° 0.7 mm 5 mps 741 mmHg 83%
    16:00 +14°C° 0.7 mm 5 mps 741 mmHg 81%
    17:00 +13°C° 0.1 mm 5 mps 742 mmHg 82%
    18:00 +13°C° 0.1 mm 4 mps 742 mmHg 84%
    19:00 +12°C° 0.1 mm 3 mps 742 mmHg 85%
    20:00 +11°C° 0 mm 3 mps 742 mmHg 87%
    21:00 +10°C° 0 mm 3 mps 742 mmHg 90%
    22:00 +8°C° 0 mm 3 mps 743 mmHg 93%
    23:00 +8°C° 0 mm 3 mps 743 mmHg 92%

    24 June, Sunday

    Time Temperature Precipitation Wind Pressure Humidity
    00:00 +8°C° 0 mm 3 mps 743 mmHg 92%
    01:00 +8°C° 0 mm 3 mps 743 mmHg 92%
    02:00 +8°C° 0 mm 3 mps 743 mmHg 92%
    03:00 +8°C° 0 mm 3 mps 744 mmHg 92%
    04:00 +8°C° 0 mm 2 mps 744 mmHg 93%
    05:00 +10°C° 0 mm 3 mps 744 mmHg 88%
    06:00 +12°C° 0 mm 3 mps 744 mmHg 84%
    07:00 +13°C° 0 mm 3 mps 745 mmHg 80%
    08:00 +14°C° 0.2 mm 3 mps 745 mmHg 78%
    09:00 +14°C° 0.2 mm 3 mps 745 mmHg 76%
    10:00 +16°C° 0.2 mm 3 mps 745 mmHg 74%
    11:00 +17°C° 0.2 mm 4 mps 745 mmHg 70%
    12:00 +17°C° 0.2 mm 4 mps 746 mmHg 67%
    13:00 +18°C° 0.2 mm 4 mps 746 mmHg 64%
    14:00 +18°C° 0.1 mm 4 mps 746 mmHg 62%
    15:00 +19°C° 0.1 mm 4 mps 746 mmHg 59%
    16:00 +19°C° 0.1 mm 4 mps 746 mmHg 57%
    17:00 +18°C° 0 mm 3 mps 746 mmHg 63%
    18:00 +17°C° 0 mm 3 mps 746 mmHg 69%
    19:00 +16°C° 0 mm 2 mps 747 mmHg 75%
    20:00 +14°C° 0 mm 2 mps 747 mmHg 81%
    21:00 +13°C° 0 mm 2 mps 747 mmHg 86%
    22:00 +10°C° 0 mm 2 mps 748 mmHg 92%
    23:00 +10°C° 0 mm 2 mps 748 mmHg 92%

    25 June, Monday

    Time Temperature Precipitation Wind Pressure Humidity
    00:00 +9°C° 0 mm 2 mps 748 mmHg 91%
    01:00 +9°C° 0 mm 2 mps 748 mmHg 91%
    02:00 +10°C° 0 mm 1 mps 748 mmHg 90%
    03:00 +10°C° 0 mm 1 mps 748 mmHg 89%
    04:00 +10°C° 0 mm 1 mps 748 mmHg 87%
    05:00 +12°C° 0 mm 2 mps 749 mmHg 81%
    06:00 +14°C° 0 mm 2 mps 749 mmHg 75%
    07:00 +16°C° 0 mm 2 mps 749 mmHg 69%
    08:00 +17°C° 0.1 mm 2 mps 749 mmHg 66%
    09:00 +19°C° 0.1 mm 3 mps 750 mmHg 64%
    10:00 +20°C° 0.1 mm 3 mps 750 mmHg 61%
    11:00 +20°C° 0.2 mm 3 mps 750 mmHg 63%
    12:00 +20°C° 0.2 mm 3 mps 750 mmHg 65%
    13:00 +20°C° 0.2 mm 3 mps 750 mmHg 67%
    14:00 +20°C° 0 mm 3 mps 750 mmHg 64%
    15:00 +21°C° 0 mm 3 mps 750 mmHg 62%
    16:00 +21°C° 0 mm 3 mps 750 mmHg 60%
    17:00 +20°C° 0.1 mm 3 mps 750 mmHg 66%
    18:00 +19°C° 0.1 mm 2 mps 750 mmHg 72%
    19:00 +18°C° 0.1 mm 2 mps 750 mmHg 79%
    20:00 +17°C° 0 mm 2 mps 750 mmHg 83%
    21:00 +15°C° 0 mm 2 mps 751 mmHg 87%
    22:00 +14°C° 0 mm 2 mps 751 mmHg 91%
    23:00 +14°C° 0 mm 2 mps 751 mmHg 92%
    Show more